Location: Saluda
(35.2377°N, 82.3468°W)
Time: 14:56:36
(UTC+00:00)

SR - Pass Details

Date: 09 October 2022
Orbit: 577 x 875 km, 66.7° (Epoch: 28 November)

Event Time Altitude Azimuth Distance (km) Brightness Sun altitude
Rises 10:20:51 0° 328° (NNW) 3,245 ? -15.0°
Reaches altitude 10° 10:23:23 10° 325° (NW) 2,266 ? -14.5°
Maximum altitude 10:28:25 57° 248° (WSW) 825 ? -13.5°
Drops below altitude 10° 10:33:00 10° 170° (S) 2,062 ? -12.6°
Sets 10:35:13 0° 166° (SSE) 2,927 ? -12.1°
